Weather History for KORH - February, 2014

Change the Weather History Date:

Sunday, February 16, 2014

  Actual Average Record
Temperature  
Mean Temperature 21 °F 27 °F  
Max Temperature 26 °F 35 °F 62 °F (1954)
Min Temperature 16 °F 20 °F -24 °F (1943)
Degree Days  
Heating Degree Days 44 38  
Month to date heating degree days 677 626  
Since 1 July heating degree days 4566 4399  
Cooling Degree Days 0 0  
Month to date cooling degree days 0 0  
Year to date cooling degree days 0 0  
Moisture  
Dew Point 11 °F    
Average Humidity 63    
Maximum Humidity 84    
Minimum Humidity 42    
Precipitation  
Precipitation T in 0.12 in 1.25 in (1964)
Month to date precipitation 3.31 1.81  
Year to date precipitation 6.41 5.30  
Sea Level Pressure  
Sea Level Pressure 29.72 in    
Wind  
Wind Speed 17 mph (WNW)    
Max Wind Speed 30 mph    
Max Gust Speed 45 mph    
Visibility 8 miles    
Events Snow    
T = Trace of Precipitation, MM = Missing Value Source: NWS Daily Summary

Daily Weather History Graph

Daily Weather History Graph

Search for Another Location

Airport or City:

Trip Planner

Search our weather history database for the weather conditions in past years. The results will help you decide how hot, cold, wet, or windy it might be!

Date:

Astronomy

Feb. 16, 2014 Rise Set
Actual Time 6:42 AM EST 5:21 PM EST
Civil Twilight 6:13 AM EST 5:49 PM EST
Nautical Twilight 5:40 AM EST 6:22 PM EST
Astronomical Twilight 5:08 AM EST 6:55 PM EST
Moon 7:18 PM EST (2/16) 7:08 AM EST (2/16)
Length of Visible Light 11h 36m
Length of Day
10h 38m
Full, 97% of the Moon is Illuminated
Feb 16
Full
Feb 22
Last Quarter
Mar 1
New
Mar 8
First Quarter
Mar 16
Full

Hourly Weather History & Observations

Time (EST) Temp. Windchill Dew Point Humidity Pressure Visibility Wind Dir Wind Speed Gust Speed Precip Events Conditions
12:10 AM 26.1 °F 12.7 °F 23.0 °F 88% 29.47 in 2.5 mi NW 18.4 mph 28.8 mph 0.00 in Snow Light Snow
12:25 AM 26.1 °F 11.6 °F 21.9 °F 84% 29.47 in 2.5 mi NW 21.9 mph 32.2 mph 0.00 in Snow Light Snow
12:47 AM 26.1 °F 11.3 °F 21.9 °F 84% 29.48 in 3.0 mi NNW 23.0 mph 36.8 mph 0.00 in Snow Light Snow
12:54 AM 26.1 °F 11.6 °F 21.0 °F 81% 29.52 in 4.0 mi NNW 21.9 mph 36.8 mph 0.00 in Snow Light Snow
1:03 AM 26.1 °F 10.7 °F 19.9 °F 78% 29.47 in 2.0 mi NNW 25.3 mph 44.9 mph 0.00 in Snow Light Snow
1:13 AM 26.1 °F 11.3 °F 19.9 °F 78% 29.48 in 5.0 mi NNW 23.0 mph 34.5 mph 0.00 in   Mostly Cloudy
1:54 AM 23.0 °F 6.6 °F 16.0 °F 74% 29.55 in 4.0 mi NW 25.3 mph 35.7 mph 0.00 in   Partly Cloudy
2:54 AM 19.9 °F 4.8 °F 12.0 °F 71% 29.58 in 4.0 mi NW 18.4 mph 41.4 mph 0.00 in Snow Blowing Snow
3:54 AM 19.0 °F 3.2 °F 12.0 °F 74% 29.61 in 10.0 mi WNW 19.6 mph 29.9 mph 0.00 in   Clear
4:54 AM 19.0 °F 3.2 °F 10.9 °F 71% 29.63 in 10.0 mi WNW 19.6 mph 26.5 mph N/A   Clear
5:54 AM 18.0 °F -0.2 °F 9.0 °F 68% 29.65 in 10.0 mi WNW 25.3 mph 34.5 mph 0.00 in   Clear
6:54 AM 17.1 °F -0.6 °F 8.1 °F 68% 29.69 in 9.0 mi West 23.0 mph 29.9 mph 0.00 in   Clear
7:54 AM 18.0 °F 3.6 °F 9.0 °F 68% 29.73 in 9.0 mi West 15.0 mph 29.9 mph 0.00 in   Clear
8:54 AM 19.0 °F 4.0 °F 8.1 °F 62% 29.73 in 10.0 mi WNW 17.3 mph 28.8 mph N/A   Clear
9:54 AM 19.9 °F 5.2 °F 7.0 °F 57% 29.75 in 10.0 mi West 17.3 mph 31.1 mph N/A   Clear
10:54 AM 19.9 °F 4.3 °F 7.0 °F 57% 29.77 in 10.0 mi West 19.6 mph 23.0 mph N/A   Clear
11:54 AM 21.9 °F 9.2 °F 7.0 °F 53% 29.77 in 10.0 mi West 13.8 mph 23.0 mph N/A   Clear
12:54 PM 23.0 °F 7.2 °F 7.0 °F 50% 29.77 in 10.0 mi WNW 23.0 mph 32.2 mph N/A   Clear
1:54 PM 25.0 °F 13.1 °F 7.0 °F 46% 29.79 in 10.0 mi West 13.8 mph 19.6 mph N/A   Clear
2:54 PM 26.1 °F 15.6 °F 7.0 °F 44% 29.81 in 10.0 mi West 11.5 mph - N/A   Clear
3:54 PM 24.1 °F 12.0 °F 5.0 °F 44% 29.81 in 10.0 mi West 13.8 mph 21.9 mph N/A   Clear
4:54 PM 23.0 °F 10.1 °F 3.9 °F 44% 29.83 in 10.0 mi WNW 15.0 mph 21.9 mph N/A   Mostly Cloudy
5:54 PM 21.9 °F 9.8 °F 3.9 °F 46% 29.86 in 10.0 mi West 12.7 mph - N/A   Mostly Cloudy
6:54 PM 19.9 °F 8.6 °F 6.1 °F 55% 29.88 in 10.0 mi West 10.4 mph - N/A   Overcast
7:54 PM 19.9 °F 8.6 °F 6.1 °F 55% 29.90 in 10.0 mi West 10.4 mph - N/A   Overcast
8:54 PM 18.0 °F 3.6 °F 7.0 °F 62% 29.91 in 10.0 mi West 15.0 mph - N/A   Overcast
9:54 PM 18.0 °F 4.2 °F 7.0 °F 62% 29.93 in 10.0 mi WNW 13.8 mph 23.0 mph N/A   Overcast
10:54 PM 17.1 °F 0.6 °F 6.1 °F 62% 29.94 in 10.0 mi WNW 19.6 mph - N/A   Overcast
11:54 PM 16.0 °F 0.6 °F 5.0 °F 62% 29.97 in 10.0 mi WNW 16.1 mph 24.2 mph N/A   Mostly Cloudy